Weather History for Connaught Airport, Ireland

Change the Weather History Date:

Thursday, August 22, 2013

  Actual Average Record
Temperature  
Mean Temperature 58 °F -  
Max Temperature 65 °F - - ()
Min Temperature 51 °F - - ()
Degree Days  
Heating Degree Days 6    
Growing Degree Days 8 (Base 50)    
Moisture  
Dew Point 55 °F    
Average Humidity 87    
Maximum Humidity 100    
Minimum Humidity 68    
Precipitation  
Precipitation 0.01 in - - ()
Sea Level Pressure  
Sea Level Pressure 30.03 in    
Wind  
Wind Speed 6 mph ()    
Max Wind Speed 12 mph    
Max Gust Speed -    
Visibility 4.8 miles    
Events Fog , Rain    
T = Trace of Precipitation, MM = Missing Value Source: Averaged Metar Reports

Daily Weather History Graph

Daily Weather History Graph

Search for Another Location

Airport:

Trip Planner

Search our weather history database for the weather conditions in past years. The results will help you decide how hot, cold, wet, or windy it might be!

Date:

Astronomy

Aug. 22, 2013 Rise Set
Actual Time 6:25 AM IST 8:48 PM IST
Civil Twilight 5:47 AM IST 9:27 PM IST
Nautical Twilight 4:57 AM IST 10:16 PM IST
Astronomical Twilight 3:57 AM IST 11:15 PM IST
Moon 8:56 PM IST (8/22) 8:22 AM IST (8/22)
Length of Visible Light 15h 40m
Length of Day
14h 22m
Full, 97% of the Moon is Illuminated
Aug 22
Full
Aug 28
Last Quarter
Sep 5
New
Sep 12
First Quarter
Sep 19
Full

Hourly Weather History & Observations

Time (IST) Temp. Dew Point Humidity Pressure Visibility Wind Dir Wind Speed Gust Speed Precip Events Conditions
1:00 AM 55 °F 54 °F 97% 30.13 in - West 4.5 mph - -  
6:00 AM 53.6 °F 51.8 °F 94% 30.06 in 1.1 mi SE 2.3 mph - N/A   Light Drizzle
6:30 AM 51.8 °F 51.8 °F 100% 30.06 in 0.2 mi ESE 2.3 mph - N/A Fog Fog
7:00 AM 53 °F 53 °F 99% 30.09 in 0 mi ESE 4.5 mph - - Fog Partial Fog
7:00 AM 53.6 °F 53.6 °F 100% 30.06 in 0.2 mi ESE 3.5 mph - N/A Fog Fog
7:30 AM 53.6 °F 53.6 °F 100% 30.06 in 0.2 mi ESE 3.5 mph - N/A Fog Fog
8:00 AM 53.6 °F 53.6 °F 100% 30.06 in 0.1 mi SE 4.6 mph - N/A Fog Fog
8:30 AM 55.4 °F 55.4 °F 100% 30.06 in 5.6 mi ESE 5.8 mph - N/A   Mostly Cloudy
9:00 AM 55.4 °F 53.6 °F 94% 30.06 in 6.2 mi SE 5.8 mph - N/A   Mostly Cloudy
9:30 AM 55.4 °F 55.4 °F 100% 30.06 in 6.2 mi SE 4.6 mph - N/A   Mostly Cloudy
10:00 AM 55.4 °F 55.4 °F 100% 30.06 in 6.2 mi SSE 6.9 mph - N/A   Mostly Cloudy
10:30 AM 57.2 °F 55.4 °F 94% 30.06 in 6.2 mi SSE 6.9 mph - N/A   Mostly Cloudy
11:00 AM 57.2 °F 55.4 °F 94% 30.04 in 6.2 mi SE 6.9 mph - N/A   Overcast
11:30 AM 59.0 °F 55.4 °F 88% 30.04 in 6.2 mi SE 8.1 mph - N/A   Mostly Cloudy
12:00 PM 59.0 °F 55.4 °F 88% 30.04 in 6.2 mi SSE 8.1 mph - N/A Rain Light Rain
12:30 PM 59.0 °F 55.4 °F 88% 30.04 in 6.2 mi SSE 8.1 mph - N/A   Mostly Cloudy
1:00 PM 59.0 °F 55.4 °F 88% 30.04 in 6.2 mi South 9.2 mph - N/A   Mostly Cloudy
1:30 PM 59.0 °F 55.4 °F 88% 30.01 in 6.2 mi SSE 9.2 mph - N/A   Mostly Cloudy
2:00 PM 60.8 °F 55.4 °F 82% 30.01 in 6.2 mi SSE 9.2 mph - N/A   Mostly Cloudy
2:30 PM 62.6 °F 55.4 °F 77% 30.01 in 6.2 mi SSE 10.4 mph - N/A   Mostly Cloudy
3:00 PM 64.4 °F 55.4 °F 73% 30.01 in 6.2 mi SSE 10.4 mph - N/A   Scattered Clouds
3:30 PM 64.4 °F 55.4 °F 73% 29.98 in 6.2 mi SSE 9.2 mph - N/A   Scattered Clouds
4:00 PM 64.4 °F 55.4 °F 73% 29.98 in 6.2 mi South 10.4 mph - N/A   Scattered Clouds
4:30 PM 64.4 °F 55.4 °F 73% 29.98 in 6.2 mi SSE 10.4 mph - N/A   Scattered Clouds
5:00 PM 62.6 °F 55.4 °F 77% 29.98 in 6.2 mi SSE 11.5 mph - N/A   Scattered Clouds
5:30 PM 66.2 °F 55.4 °F 68% 29.95 in 6.2 mi SSE 11.5 mph - N/A   Partly Cloudy
6:00 PM 64.4 °F 55.4 °F 73% 29.95 in 6.2 mi SSE 10.4 mph - N/A   Scattered Clouds
7:00 PM 64 °F 56 °F 68% 29.93 in 37 mi SSE 8.9 mph - -   Partly Cloudy